Terminal Aerodrome Forecast
Issued by NWS Bismarck, ND

Home | Current Version | Previous Version | Graphics & Text | Print | Product List | Glossary On
Versions: 1 2 3 4 5 6 7 8 9 10 11 12 13 14 15
000
FTUS43 KBIS 010525
TAFBIS
TAF
KBIS 010525Z 0106/0206 26005KT P6SM SKC
     FM011500 26010KT P6SM SKC
     FM011900 23012KT P6SM SCT070
     FM020100 19009KT P6SM SCT070=

USA.gov is the U.S. government's official web portal to all federal, state and local government web resources and services.